| time (UTC) | temp F | wind direction | speed knots | gust knots | rain 1hr in | rain 24hr in | rain mn in | humidity % | barometer mb |
| 20260507040846 | 59 | 49 | 1.7 | 5.2 | 0.00 | 0.00 | 0.00 | 75 | 1019.8 |
| 20260507040345 | 59 | 265 | 0.9 | 5.2 | 0.00 | 0.00 | 0.00 | 75 | 1019.7 |
| 20260507035846 | 60 | 148 | 0.9 | 4.3 | 0.00 | 0.00 | 0.00 | 75 | 1019.8 |
| 20260507035345 | 60 | 276 | 0.9 | 4.3 | 0.00 | 0.00 | 0.00 | 74 | 1019.6 |
| 20260507034846 | 60 | 247 | 1.7 | 3.5 | 0.00 | 0.00 | 0.00 | 74 | 1019.6 |
| 20260507034345 | 60 | 209 | 0.9 | 4.3 | 0.00 | 0.00 | 0.00 | 74 | 1019.4 |
| 20260507034106 | 60 | 336 | 1.7 | 4.3 | 0.00 | 0.00 | 0.00 | 74 | 1019.4 |
| 20260507033345 | 61 | 316 | 1.7 | 6.1 | 0.00 | 0.00 | 0.00 | 73 | 1019.3 |
| 20260507032844 | 61 | 255 | 0.9 | 7.8 | 0.00 | 0.00 | 0.00 | 73 | 1019.2 |
| 20260507032345 | 61 | 275 | 1.7 | 7.8 | 0.00 | 0.00 | 0.00 | 72 | 1019.1 |
| 20260507031845 | 61 | 257 | 1.7 | 5.2 | 0.00 | 0.00 | 0.00 | 72 | 1019.1 |
| 20260507031345 | 62 | 25 | 0.9 | 4.3 | 0.00 | 0.00 | 0.00 | 71 | 1019.0 |
| 20260507030844 | 62 | 299 | 1.7 | 5.2 | 0.00 | 0.00 | 0.00 | 70 | 1018.9 |
| 20260507030606 | 62 | 152 | 0.9 | 6.1 | 0.00 | 0.00 | 0.00 | 70 | 1018.8 |
| 20260507025844 | 63 | 321 | 1.7 | 6.1 | 0.00 | 0.00 | 0.00 | 69 | 1018.7 |
| 20260507025611 | 63 | 157 | 1.7 | 5.2 | 0.00 | 0.00 | 0.00 | 68 | 1018.6 |
| 20260507024844 | 64 | 264 | 1.7 | 5.2 | 0.00 | 0.00 | 0.00 | 67 | 1018.6 |
| 20260507024344 | 64 | 293 | 1.7 | 3.5 | 0.00 | 0.00 | 0.00 | 67 | 1018.5 |
| 20260507023843 | 65 | 56 | 1.7 | 3.5 | 0.00 | 0.00 | 0.00 | 67 | 1018.5 |
| 20260507023344 | 65 | 158 | 0.9 | 4.3 | 0.00 | 0.00 | 0.00 | 66 | 1018.4 |
| 20260507023324 | 65 | 25 | 0.9 | 5.2 | 0.00 | 0.00 | 0.00 | 66 | 1018.3 |
| 20260507022344 | 66 | 27 | 0.9 | 5.2 | 0.00 | 0.00 | 0.00 | 65 | 1018.4 |
| 20260507021844 | 66 | 196 | 0.9 | 7.8 | 0.00 | 0.00 | 0.00 | 65 | 1018.3 |
| 20260507021344 | 66 | 14 | 1.7 | 8.7 | 0.00 | 0.00 | 0.00 | 65 | 1018.3 |
| 20260507020842 | 66 | 307 | 1.7 | 8.7 | 0.00 | 0.00 | 0.00 | 64 | 1018.2 |
| 20260507020343 | 67 | 104 | 1.7 | 4.3 | 0.00 | 0.00 | 0.00 | 63 | 1018.2 |
| 20260507015843 | 67 | 264 | 1.7 | 4.3 | 0.00 | 0.00 | 0.00 | 63 | 1018.2 |
| 20260507015343 | 67 | 306 | 0.9 | 4.3 | 0.00 | 0.00 | 0.00 | 63 | 1018.2 |
| 20260507015059 | 67 | 275 | 0.9 | 8.7 | 0.00 | 0.00 | 0.00 | 63 | 1018.1 |
| 20260507014343 | 67 | 251 | 1.7 | 8.7 | 0.00 | 0.00 | 0.00 | 63 | 1018.2 |
| 20260507014108 | 67 | 282 | 1.7 | 6.1 | 0.00 | 0.00 | 0.00 | 62 | 1018.3 |
| 20260507013342 | 67 | 279 | 2.6 | 6.1 | 0.00 | 0.00 | 0.00 | 62 | 1018.1 |
| 20260507013328 | 68 | 106 | 1.7 | 5.2 | 0.00 | 0.00 | 0.00 | 62 | 1018.1 |
| 20260507012343 | 67 | 113 | 1.7 | 5.2 | 0.00 | 0.00 | 0.00 | 61 | 1018.1 |
| 20260507011841 | 68 | 44 | 1.7 | 6.1 | 0.00 | 0.00 | 0.00 | 63 | 1018.1 |
| 20260507011342 | 68 | 305 | 1.7 | 6.1 | 0.00 | 0.00 | 0.00 | 62 | 1018.1 |
| 20260507011325 | 68 | 257 | 0.9 | 4.3 | 0.00 | 0.00 | 0.00 | 62 | 1018.0 |
| 20260507010601 | 68 | 90 | 1.7 | 5.2 | 0.00 | 0.00 | 0.00 | 61 | 1018.0 |
| 20260507005841 | 68 | 56 | 0.9 | 11.3 | 0.00 | 0.00 | 0.00 | 61 | 1018.1 |
| 20260507005605 | 69 | 31 | 1.7 | 11.3 | 0.00 | 0.00 | 0.00 | 62 | 1018.0 |
| 20260507004841 | 69 | 252 | 2.6 | 6.1 | 0.00 | 0.00 | 0.00 | 60 | 1018.1 |
| 20260507004341 | 69 | 313 | 2.6 | 6.1 | 0.00 | 0.00 | 0.00 | 61 | 1018.0 |
| 20260507003841 | 69 | 31 | 3.5 | 7.8 | 0.00 | 0.00 | 0.00 | 61 | 1017.9 |
| 20260507003340 | 70 | 331 | 0.9 | 7.8 | 0.00 | 0.00 | 0.00 | 61 | 1017.9 |
| 20260507002841 | 69 | 23 | 1.7 | 6.1 | 0.00 | 0.00 | 0.00 | 61 | 1018.0 |
| 20260507002341 | 70 | 212 | 3.5 | 6.1 | 0.00 | 0.00 | 0.00 | 60 | 1018.0 |
| 20260507002033 | 70 | 51 | 0.9 | 8.7 | 0.00 | 0.00 | 0.00 | 60 | 1018.0 |
| 20260507001924 | 70 | 226 | 2.6 | 5.2 | 0.00 | 0.00 | 0.00 | 61 | 1017.9 |
| 20260507001057 | 70 | 252 | 3.5 | 10.4 | 0.00 | 0.00 | 0.00 | 60 | 1018.0 |
| 20260507000343 | 70 | 245 | 4.3 | 10.4 | 0.00 | 0.00 | 0.00 | 59 | 1017.9 |
| 20260506235839 | 71 | 272 | 2.6 | 7.8 | 0.00 | 0.00 | 0.00 | 58 | 1017.9 |
| 20260506235341 | 71 | 104 | 1.7 | 5.2 | 0.00 | 0.00 | 0.00 | 58 | 1017.8 |
| 20260506234840 | 71 | 264 | 3.5 | 7.8 | 0.00 | 0.00 | 0.00 | 58 | 1017.8 |
| 20260506234340 | 71 | 248 | 1.7 | 7.8 | 0.00 | 0.00 | 0.00 | 57 | 1017.8 |
| 20260506233840 | 71 | 269 | 2.6 | 6.1 | 0.00 | 0.00 | 0.00 | 58 | 1017.8 |
| 20260506233340 | 71 | 25 | 1.7 | 5.2 | 0.00 | 0.00 | 0.00 | 57 | 1017.8 |
| 20260506233103 | 71 | 0 | 1.7 | 7.8 | 0.00 | 0.00 | 0.00 | 58 | 1017.8 |
| 20260506232340 | 71 | 32 | 1.7 | 7.8 | 0.00 | 0.00 | 0.00 | 57 | 1017.8 |
| 20260506231839 | 71 | 85 | 1.7 | 5.2 | 0.00 | 0.00 | 0.00 | 56 | 1018.0 |
| 20260506231339 | 71 | 72 | 1.7 | 5.2 | 0.00 | 0.00 | 0.00 | 56 | 1017.9 |
| 20260506230839 | 72 | 89 | 1.7 | 6.1 | 0.00 | 0.00 | 0.00 | 56 | 1017.9 |
| 20260506230339 | 72 | 269 | 1.7 | 6.1 | 0.00 | 0.00 | 0.00 | 56 | 1018.1 |
| 20260506225838 | 72 | 3 | 1.7 | 6.1 | 0.00 | 0.00 | 0.00 | 57 | 1018.0 |
| 20260506225824 | 72 | 82 | 0.9 | 3.5 | 0.00 | 0.00 | 0.00 | 56 | 1018.1 |
| 20260506225101 | 72 | 251 | 1.7 | 6.1 | 0.00 | 0.00 | 0.00 | 56 | 1018.2 |
| 20260506224339 | 72 | 272 | 1.7 | 7.8 | 0.00 | 0.00 | 0.00 | 55 | 1018.2 |
| 20260506223838 | 72 | 262 | 2.6 | 8.7 | 0.00 | 0.00 | 0.00 | 55 | 1018.2 |
| 20260506223337 | 72 | 289 | 2.6 | 8.7 | 0.00 | 0.00 | 0.00 | 55 | 1018.3 |
| 20260506222838 | 73 | 298 | 1.7 | 6.1 | 0.00 | 0.00 | 0.00 | 54 | 1018.3 |
| 20260506222338 | 73 | 269 | 2.6 | 6.1 | 0.00 | 0.00 | 0.00 | 53 | 1018.3 |
| 20260506221838 | 73 | 180 | 1.7 | 6.1 | 0.00 | 0.00 | 0.00 | 52 | 1018.4 |
| 20260506221338 | 73 | 285 | 1.7 | 7.8 | 0.00 | 0.00 | 0.00 | 53 | 1018.5 |
| 20260506220838 | 73 | 79 | 1.7 | 7.8 | 0.00 | 0.00 | 0.00 | 52 | 1018.5 |
| 20260506220338 | 73 | 259 | 1.7 | 4.3 | 0.00 | 0.00 | 0.00 | 53 | 1018.5 |
| 20260506215837 | 73 | 45 | 2.6 | 4.3 | 0.00 | 0.00 | 0.00 | 53 | 1018.6 |
| 20260506215336 | 73 | 21 | 1.7 | 5.2 | 0.00 | 0.00 | 0.00 | 52 | 1018.6 |
| 20260506214837 | 73 | 314 | 1.7 | 5.2 | 0.00 | 0.00 | 0.00 | 52 | 1018.7 |
| 20260506214338 | 73 | 220 | 1.7 | 4.3 | 0.00 | 0.00 | 0.00 | 51 | 1018.8 |
| 20260506213837 | 74 | 140 | 1.7 | 5.2 | 0.00 | 0.00 | 0.00 | 52 | 1018.8 |
| 20260506213555 | 73 | 251 | 1.7 | 5.2 | 0.00 | 0.00 | 0.00 | 52 | 1018.8 |
| 20260506212837 | 73 | 61 | 1.7 | 5.2 | 0.00 | 0.00 | 0.00 | 54 | 1018.9 |
| 20260506212337 | 73 | 255 | 1.7 | 5.2 | 0.00 | 0.00 | 0.00 | 53 | 1019.0 |
| 20260506211837 | 73 | 226 | 0.9 | 4.3 | 0.00 | 0.00 | 0.00 | 53 | 1019.0 |
| 20260506211335 | 72 | 285 | 2.6 | 5.2 | 0.00 | 0.00 | 0.00 | 53 | 1019.1 |
| 20260506210836 | 72 | 313 | 1.7 | 5.2 | 0.00 | 0.00 | 0.00 | 55 | 1019.2 |
| 20260506210335 | 72 | 226 | 1.7 | 5.2 | 0.00 | 0.00 | 0.00 | 54 | 1019.2 |
| 20260506210056 | 72 | 216 | 0.9 | 4.3 | 0.00 | 0.00 | 0.00 | 54 | 1019.2 |
| 20260506205335 | 72 | 279 | 1.7 | 5.2 | 0.00 | 0.00 | 0.00 | 54 | 1019.2 |
| 20260506204835 | 72 | 69 | 0.9 | 5.2 | 0.00 | 0.00 | 0.00 | 55 | 1019.2 |
| 20260506204337 | 72 | 274 | 1.7 | 5.2 | 0.00 | 0.00 | 0.00 | 55 | 1019.4 |
| 20260506203836 | 72 | 47 | 0.9 | 5.2 | 0.00 | 0.00 | 0.00 | 53 | 1019.4 |
| 20260506203335 | 72 | 110 | 1.7 | 5.2 | 0.00 | 0.00 | 0.00 | 52 | 1019.4 |
| 20260506202834 | 72 | 94 | 1.7 | 5.2 | 0.00 | 0.00 | 0.00 | 53 | 1019.6 |
| 20260506202335 | 72 | 85 | 0.9 | 5.2 | 0.00 | 0.00 | 0.00 | 56 | 1019.6 |
| 20260506202058 | 72 | 49 | 1.7 | 5.2 | 0.00 | 0.00 | 0.00 | 55 | 1019.7 |
| 20260506201335 | 73 | 7 | 1.7 | 4.3 | 0.00 | 0.00 | 0.00 | 54 | 1019.7 |
| 20260506201100 | 71 | 336 | 1.7 | 4.3 | 0.00 | 0.00 | 0.00 | 53 | 1019.7 |
| 20260506200815 | 71 | 231 | 1.7 | 6.1 | 0.00 | 0.00 | 0.00 | 53 | 1019.7 |
| 20260506195834 | 71 | 303 | 2.6 | 6.1 | 0.00 | 0.00 | 0.00 | 53 | 1019.7 |
| 20260506195335 | 72 | 62 | 1.7 | 5.2 | 0.00 | 0.00 | 0.00 | 56 | 1019.8 |
| 20260506194834 | 73 | 257 | 0.9 | 4.3 | 0.00 | 0.00 | 0.00 | 52 | 1019.8 |
| 20260506194334 | 72 | 25 | 1.7 | 5.2 | 0.00 | 0.00 | 0.00 | 53 | 1019.8 |
| 20260506194054 | 70 | 266 | 1.7 | 5.2 | 0.00 | 0.00 | 0.00 | 55 | 1019.9 |
| 20260506193335 | 70 | 317 | 0.9 | 4.3 | 0.00 | 0.00 | 0.00 | 54 | 1019.9 |
| 20260506192834 | 70 | 285 | 1.7 | 4.3 | 0.00 | 0.00 | 0.00 | 54 | 1019.9 |
| 20260506192333 | 71 | 295 | 0.9 | 3.5 | 0.00 | 0.00 | 0.00 | 55 | 1020.1 |
| 20260506191834 | 70 | 309 | 0.9 | 4.3 | 0.00 | 0.00 | 0.00 | 55 | 1020.0 |
| 20260506191334 | 70 | 10 | 1.7 | 4.3 | 0.00 | 0.00 | 0.00 | 54 | 1020.1 |
| 20260506190833 | 70 | 56 | 1.7 | 2.6 | 0.00 | 0.00 | 0.00 | 54 | 1020.2 |
| 20260506190333 | 70 | 281 | 1.7 | 6.1 | 0.00 | 0.00 | 0.00 | 55 | 1020.3 |
| 20260506190058 | 70 | 293 | 1.7 | 6.1 | 0.00 | 0.00 | 0.00 | 55 | 1020.2 |
| 20260506185334 | 70 | 248 | 1.7 | 4.3 | 0.00 | 0.00 | 0.00 | 56 | 1020.2 |
| 20260506184833 | 69 | 333 | 1.7 | 3.5 | 0.00 | 0.00 | 0.00 | 58 | 1020.2 |
| 20260506184333 | 69 | 0 | 0.9 | 4.3 | 0.00 | 0.00 | 0.00 | 58 | 1020.4 |
| 20260506183832 | 68 | 310 | 1.7 | 4.3 | 0.00 | 0.00 | 0.00 | 58 | 1020.4 |
| 20260506183332 | 68 | 317 | 1.7 | 4.3 | 0.00 | 0.00 | 0.00 | 59 | 1020.5 |
| 20260506183055 | 67 | 274 | 0.9 | 4.3 | 0.00 | 0.00 | 0.00 | 59 | 1020.4 |
| 20260506182332 | 67 | 247 | 1.7 | 5.2 | 0.00 | 0.00 | 0.00 | 59 | 1020.6 |
| 20260506182054 | 67 | 258 | 1.7 | 6.1 | 0.00 | 0.00 | 0.00 | 59 | 1020.6 |
| 20260506181332 | 67 | 281 | 0.9 | 6.1 | 0.00 | 0.00 | 0.00 | 62 | 1020.6 |
| 20260506180831 | 66 | 58 | 1.7 | 4.3 | 0.00 | 0.00 | 0.00 | 60 | 1020.5 |
| 20260506180332 | 66 | 39 | 1.7 | 4.3 | 0.00 | 0.00 | 0.00 | 62 | 1020.5 |
| 20260506175832 | 65 | 299 | 1.7 | 4.3 | 0.00 | 0.00 | 0.00 | 63 | 1020.6 |
| 20260506175331 | 65 | 0 | 0.9 | 4.3 | 0.00 | 0.00 | 0.00 | 64 | 1020.5 |
| 20260506175052 | 65 | 16 | 1.7 | 4.3 | 0.00 | 0.00 | 0.00 | 63 | 1020.6 |
| 20260506174330 | 64 | 281 | 1.7 | 4.3 | 0.00 | 0.00 | 0.00 | 65 | 1020.5 |
| 20260506173831 | 64 | 259 | 1.7 | 4.3 | 0.00 | 0.00 | 0.00 | 65 | 1020.6 |
| 20260506173331 | 64 | 331 | 1.7 | 4.3 | 0.00 | 0.00 | 0.00 | 65 | 1020.5 |
| 20260506172831 | 64 | 278 | 2.6 | 4.3 | 0.00 | 0.00 | 0.00 | 66 | 1020.6 |
| 20260506172330 | 63 | 275 | 1.7 | 6.1 | 0.00 | 0.00 | 0.00 | 65 | 1020.6 |
| 20260506172058 | 63 | 282 | 3.5 | 6.1 | 0.00 | 0.00 | 0.00 | 67 | 1020.7 |
| 20260506171331 | 62 | 254 | 1.7 | 4.3 | 0.00 | 0.00 | 0.00 | 67 | 1020.6 |
| 20260506170830 | 62 | 261 | 1.7 | 4.3 | 0.00 | 0.00 | 0.00 | 67 | 1020.6 |
| 20260506170551 | 62 | 281 | 1.7 | 5.2 | 0.00 | 0.00 | 0.00 | 68 | 1020.7 |
| 20260506165830 | 62 | 0 | 1.7 | 5.2 | 0.00 | 0.00 | 0.00 | 69 | 1020.6 |
| 20260506165330 | 62 | 278 | 1.7 | 4.3 | 0.00 | 0.00 | 0.00 | 70 | 1020.6 |
| 20260506164831 | 61 | 233 | 0.9 | 2.6 | 0.00 | 0.00 | 0.00 | 69 | 1020.6 |
| 20260506164330 | 61 | 307 | 0.9 | 4.3 | 0.00 | 0.00 | 0.00 | 71 | 1020.7 |
| 20260506164314 | 61 | 261 | 2.6 | 4.3 | 0.00 | 0.00 | 0.00 | 70 | 1020.6 |
| 20260506163330 | 61 | 302 | 1.7 | 4.3 | 0.00 | 0.00 | 0.00 | 71 | 1020.7 |
| 20260506162829 | 61 | 257 | 0.0 | 4.3 | 0.00 | 0.00 | 0.00 | 71 | 1020.7 |
| 20260506162329 | 60 | 269 | 1.7 | 3.5 | 0.00 | 0.00 | 0.00 | 72 | 1020.7 |
| 20260506161829 | 60 | 298 | 1.7 | 3.5 | 0.00 | 0.00 | 0.00 | 72 | 1020.7 |
| 20260506161328 | 60 | 326 | 0.9 | 2.6 | 0.00 | 0.00 | 0.00 | 73 | 1020.6 |
| 20260506160829 | 60 | 48 | 0.9 | 3.5 | 0.00 | 0.00 | 0.00 | 72 | 1020.8 |
| 20260506160330 | 60 | 265 | 0.9 | 3.5 | 0.00 | 0.00 | 0.00 | 72 | 1020.7 |
| 20260506155829 | 60 | 274 | 0.9 | 2.6 | 0.00 | 0.00 | 0.00 | 72 | 1020.6 |
| 20260506155329 | 60 | 271 | 1.7 | 4.3 | 0.00 | 0.00 | 0.00 | 72 | 1020.7 |
| 20260506154829 | 59 | 266 | 1.7 | 4.3 | 0.00 | 0.00 | 0.00 | 73 | 1020.7 |
| 20260506154328 | 59 | 271 | 0.9 | 3.5 | 0.00 | 0.00 | 0.00 | 74 | 1020.7 |
| 20260506154054 | 59 | 269 | 1.7 | 4.3 | 0.00 | 0.00 | 0.00 | 74 | 1020.7 |
| 20260506153328 | 59 | 275 | 1.7 | 4.3 | 0.00 | 0.00 | 0.00 | 73 | 1020.7 |
| 20260506152828 | 59 | 281 | 0.9 | 3.5 | 0.00 | 0.00 | 0.00 | 75 | 1020.6 |
| 20260506152328 | 59 | 303 | 1.7 | 3.5 | 0.00 | 0.00 | 0.00 | 75 | 1020.7 |
| 20260506151828 | 58 | 265 | 2.6 | 3.5 | 0.00 | 0.00 | 0.00 | 75 | 1020.7 |
| 20260506151328 | 58 | 274 | 1.7 | 3.5 | 0.00 | 0.00 | 0.00 | 75 | 1020.7 |
| 20260506150828 | 58 | 274 | 2.6 | 3.5 | 0.00 | 0.00 | 0.00 | 75 | 1020.6 |
| 20260506150548 | 58 | 306 | 0.9 | 2.6 | 0.00 | 0.00 | 0.00 | 75 | 1020.6 |
| 20260506145827 | 58 | 317 | 0.0 | 2.6 | 0.00 | 0.00 | 0.00 | 76 | 1020.7 |
| 20260506145545 | 58 | 272 | 0.0 | 1.7 | 0.00 | 0.00 | 0.00 | 76 | 1020.7 |
| 20260506144827 | 58 | 272 | 0.0 | 1.7 | 0.00 | 0.00 | 0.00 | 76 | 1020.7 |
| 20260506144327 | 58 | 271 | 0.0 | 2.6 | 0.00 | 0.00 | 0.00 | 76 | 1020.7 |
| 20260506143826 | 58 | 271 | 0.0 | 2.6 | 0.00 | 0.00 | 0.00 | 76 | 1020.7 |
| 20260506143327 | 58 | 271 | 0.9 | 3.5 | 0.00 | 0.00 | 0.00 | 76 | 1020.6 |
| 20260506142826 | 58 | 268 | 0.9 | 3.5 | 0.00 | 0.00 | 0.00 | 76 | 1020.6 |
| 20260506142327 | 57 | 299 | 0.0 | 3.5 | 0.00 | 0.00 | 0.00 | 76 | 1020.6 |
| 20260506141826 | 57 | 299 | 1.7 | 3.5 | 0.00 | 0.00 | 0.00 | 76 | 1020.6 |
| 20260506141325 | 57 | 274 | 0.9 | 2.6 | 0.00 | 0.00 | 0.00 | 77 | 1020.6 |
| 20260506141044 | 57 | 272 | 0.9 | 3.5 | 0.00 | 0.00 | 0.00 | 77 | 1020.5 |
| 20260506140326 | 57 | 272 | 0.9 | 3.5 | 0.00 | 0.00 | 0.00 | 77 | 1020.4 |
| 20260506140050 | 56 | 279 | 0.0 | 1.7 | 0.00 | 0.00 | 0.00 | 77 | 1020.3 |
| 20260506135326 | 56 | 283 | 0.0 | 1.7 | 0.00 | 0.00 | 0.00 | 77 | 1020.2 |
| 20260506134826 | 56 | 285 | 0.0 | 0.9 | 0.00 | 0.00 | 0.00 | 77 | 1020.2 |
| 20260506134326 | 56 | 285 | 0.0 | 0.9 | 0.00 | 0.00 | 0.00 | 77 | 1020.1 |
| 20260506134044 | 56 | 285 | 0.0 | 0.9 | 0.00 | 0.00 | 0.00 | 77 | 1020.0 |
| 20260506133326 | 56 | 285 | 0.0 | 0.9 | 0.00 | 0.00 | 0.00 | 77 | 1019.9 |
| 20260506132824 | 56 | 285 | 0.0 | 0.0 | 0.00 | 0.00 | 0.00 | 76 | 1019.8 |
| 20260506132326 | 56 | 285 | 0.0 | 0.9 | 0.00 | 0.00 | 0.00 | 76 | 1019.8 |
| 20260506131825 | 56 | 285 | 0.0 | 0.9 | 0.00 | 0.00 | 0.00 | 76 | 1019.9 |
| 20260506131326 | 56 | 285 | 0.0 | 0.0 | 0.00 | 0.00 | 0.00 | 76 | 1019.8 |
| 20260506131045 | 56 | 285 | 0.0 | 0.0 | 0.00 | 0.00 | 0.00 | 76 | 1019.7 |
| 20260506130812 | 56 | 285 | 0.0 | 0.9 | 0.00 | 0.00 | 0.00 | 76 | 1019.7 |
| 20260506130053 | 56 | 285 | 0.0 | 0.9 | 0.00 | 0.00 | 0.00 | 76 | 1019.7 |
| 20260506125326 | 56 | 285 | 0.0 | 0.0 | 0.00 | 0.00 | 0.00 | 76 | 1019.6 |
| 20260506124823 | 56 | 285 | 0.0 | 0.0 | 0.00 | 0.00 | 0.00 | 75 | 1019.6 |
| 20260506124324 | 56 | 285 | 0.0 | 0.9 | 0.00 | 0.00 | 0.00 | 75 | 1019.6 |
| 20260506123824 | 56 | 285 | 0.0 | 0.9 | 0.00 | 0.00 | 0.00 | 75 | 1019.6 |
| 20260506123546 | 56 | 285 | 0.0 | 0.0 | 0.00 | 0.00 | 0.00 | 75 | 1019.6 |
| 20260506122824 | 56 | 285 | 0.0 | 0.0 | 0.00 | 0.00 | 0.00 | 75 | 1019.6 |
| 20260506122324 | 57 | 285 | 0.0 | 0.0 | 0.00 | 0.00 | 0.00 | 75 | 1019.7 |
| 20260506121824 | 57 | 285 | 0.0 | 0.0 | 0.00 | 0.00 | 0.00 | 75 | 1019.6 |
| 20260506121544 | 57 | 285 | 0.0 | 0.9 | 0.00 | 0.00 | 0.00 | 75 | 1019.6 |
| 20260506120824 | 57 | 285 | 0.0 | 0.9 | 0.00 | 0.00 | 0.00 | 75 | 1019.5 |
| 20260506120542 | 57 | 262 | 0.0 | 0.0 | 0.00 | 0.00 | 0.00 | 74 | 1019.5 |
| 20260506120048 | 57 | 262 | 0.0 | 0.0 | 0.00 | 0.00 | 0.00 | 74 | 1019.5 |
| 20260506115323 | 57 | 262 | 0.0 | 0.0 | 0.00 | 0.00 | 0.00 | 74 | 1019.5 |
| 20260506114823 | 57 | 262 | 0.0 | 0.0 | 0.00 | 0.00 | 0.00 | 74 | 1019.3 |
| 20260506114323 | 57 | 262 | 0.0 | 1.7 | 0.00 | 0.00 | 0.00 | 74 | 1019.3 |
| 20260506113823 | 57 | 262 | 0.9 | 1.7 | 0.00 | 0.00 | 0.00 | 74 | 1019.4 |
| 20260506113322 | 57 | 266 | 0.0 | 0.0 | 0.00 | 0.00 | 0.00 | 74 | 1019.3 |
| 20260506112823 | 57 | 266 | 0.0 | 0.0 | 0.00 | 0.00 | 0.00 | 74 | 1019.3 |
| 20260506112321 | 57 | 266 | 0.0 | 0.0 | 0.00 | 0.00 | 0.00 | 74 | 1019.2 |
| 20260506111822 | 57 | 266 | 0.0 | 0.9 | 0.00 | 0.00 | 0.00 | 74 | 1019.2 |
| 20260506111322 | 57 | 266 | 0.0 | 0.9 | 0.00 | 0.00 | 0.00 | 74 | 1019.2 |
| 20260506110823 | 57 | 266 | 0.0 | 0.0 | 0.00 | 0.00 | 0.00 | 74 | 1019.2 |
| 20260506110322 | 57 | 266 | 0.0 | 0.0 | 0.00 | 0.00 | 0.00 | 75 | 1019.2 |
| 20260506110045 | 57 | 266 | 0.0 | 0.0 | 0.00 | 0.00 | 0.00 | 75 | 1019.2 |
| 20260506105322 | 57 | 266 | 0.0 | 0.0 | 0.00 | 0.00 | 0.00 | 75 | 1019.2 |
| 20260506104823 | 57 | 266 | 0.0 | 0.0 | 0.00 | 0.00 | 0.00 | 75 | 1019.1 |
| 20260506104322 | 57 | 266 | 0.0 | 0.0 | 0.00 | 0.00 | 0.00 | 74 | 1019.0 |
| 20260506103820 | 57 | 266 | 0.0 | 0.0 | 0.00 | 0.00 | 0.00 | 75 | 1019.0 |
| 20260506103321 | 57 | 266 | 0.0 | 0.0 | 0.00 | 0.00 | 0.00 | 74 | 1019.0 |
| 20260506102822 | 57 | 266 | 0.0 | 0.0 | 0.00 | 0.00 | 0.00 | 74 | 1019.0 |
| 20260506102321 | 58 | 266 | 0.0 | 0.0 | 0.00 | 0.00 | 0.00 | 74 | 1019.0 |
| 20260506101822 | 58 | 266 | 0.0 | 0.9 | 0.00 | 0.00 | 0.00 | 74 | 1019.1 |
| 20260506101321 | 58 | 266 | 0.0 | 0.9 | 0.00 | 0.00 | 0.00 | 74 | 1019.0 |
| 20260506100822 | 58 | 266 | 0.0 | 0.0 | 0.00 | 0.00 | 0.00 | 74 | 1019.1 |
| 20260506100321 | 58 | 266 | 0.0 | 0.0 | 0.00 | 0.00 | 0.00 | 74 | 1019.0 |
| 20260506100049 | 58 | 266 | 0.0 | 1.7 | 0.00 | 0.00 | 0.00 | 74 | 1019.0 |
| 20260506095320 | 58 | 266 | 0.0 | 1.7 | 0.00 | 0.00 | 0.00 | 74 | 1019.0 |
| 20260506094820 | 58 | 347 | 0.0 | 1.7 | 0.00 | 0.00 | 0.00 | 74 | 1019.0 |
| 20260506094547 | 58 | 347 | 0.0 | 1.7 | 0.00 | 0.00 | 0.00 | 74 | 1019.0 |
| 20260506093820 | 58 | 0 | 0.0 | 1.7 | 0.00 | 0.00 | 0.00 | 74 | 1019.0 |
| 20260506093319 | 58 | 293 | 0.0 | 1.7 | 0.00 | 0.00 | 0.00 | 75 | 1019.0 |
| 20260506092820 | 58 | 298 | 0.0 | 1.7 | 0.00 | 0.00 | 0.00 | 75 | 1019.1 |
| 20260506092320 | 58 | 298 | 0.0 | 1.7 | 0.00 | 0.00 | 0.00 | 75 | 1019.2 |
| 20260506091820 | 58 | 298 | 0.0 | 0.9 | 0.00 | 0.00 | 0.00 | 75 | 1019.1 |
| 20260506091541 | 58 | 250 | 0.0 | 1.7 | 0.00 | 0.00 | 0.00 | 75 | 1019.1 |
| 20260506090819 | 58 | 248 | 0.0 | 2.6 | 0.00 | 0.00 | 0.00 | 75 | 1019.1 |
| 20260506090756 | 58 | 271 | 0.0 | 2.6 | 0.00 | 0.00 | 0.00 | 76 | 1019.1 |
| 20260506085819 | 58 | 268 | 0.0 | 2.6 | 0.00 | 0.00 | 0.00 | 76 | 1019.0 |
| 20260506085319 | 58 | 254 | 0.9 | 1.7 | 0.00 | 0.00 | 0.00 | 76 | 1019.0 |
| 20260506085036 | 58 | 278 | 0.0 | 2.6 | 0.00 | 0.00 | 0.00 | 75 | 1019.0 |
| 20260506084320 | 57 | 276 | 0.9 | 2.6 | 0.00 | 0.00 | 0.00 | 75 | 1019.1 |
| 20260506083819 | 57 | 282 | 0.0 | 1.7 | 0.00 | 0.00 | 0.00 | 75 | 1019.1 |
| 20260506083317 | 57 | 282 | 0.0 | 2.6 | 0.00 | 0.00 | 0.00 | 74 | 1019.1 |
| 20260506082818 | 58 | 282 | 0.9 | 2.6 | 0.00 | 0.00 | 0.00 | 74 | 1019.2 |
| 20260506082317 | 58 | 275 | 0.0 | 2.6 | 0.00 | 0.00 | 0.00 | 74 | 1019.1 |
| 20260506082042 | 58 | 274 | 0.9 | 2.6 | 0.00 | 0.00 | 0.00 | 73 | 1019.1 |
| 20260506081318 | 58 | 234 | 0.0 | 1.7 | 0.00 | 0.00 | 0.00 | 73 | 1019.0 |
| 20260506080818 | 58 | 234 | 0.0 | 1.7 | 0.00 | 0.00 | 0.00 | 73 | 1019.0 |
| 20260506080540 | 58 | 234 | 0.0 | 2.6 | 0.00 | 0.00 | 0.00 | 73 | 1019.1 |
| 20260506073318 | 58 | 39 | 0.0 | 2.6 | 0.00 | 0.00 | 0.00 | 73 | 1018.9 |
| 20260506072816 | 58 | 271 | 0.0 | 2.6 | 0.00 | 0.00 | 0.00 | 73 | 1018.8 |
| 20260506072317 | 58 | 32 | 0.9 | 2.6 | 0.00 | 0.00 | 0.00 | 73 | 1018.8 |
| 20260506071817 | 58 | 281 | 0.0 | 1.7 | 0.00 | 0.00 | 0.00 | 73 | 1018.9 |
| 20260506071317 | 58 | 276 | 0.0 | 1.7 | 0.00 | 0.00 | 0.00 | 73 | 1018.8 |
| 20260506070816 | 58 | 281 | 0.0 | 1.7 | 0.00 | 0.00 | 0.00 | 72 | 1018.7 |
| 20260506070537 | 58 | 289 | 0.0 | 2.6 | 0.00 | 0.00 | 0.00 | 72 | 1018.6 |
| 20260506062314 | 59 | 279 | 0.9 | 2.6 | 0.00 | 0.00 | 0.00 | 70 | 1018.4 |
| 20260506061815 | 59 | 11 | 0.9 | 3.5 | 0.00 | 0.00 | 0.00 | 70 | 1018.4 |
| 20260506061804 | 59 | 10 | 0.0 | 3.5 | 0.00 | 0.00 | 0.00 | 70 | 1018.3 |
| 20260506061032 | 59 | 11 | 0.0 | 2.6 | 0.00 | 0.00 | 0.00 | 70 | 1018.3 |
| 20260506060316 | 59 | 255 | 0.9 | 2.6 | 0.00 | 0.00 | 0.00 | 70 | 1018.2 |
| 20260506051314 | 59 | 241 | 0.9 | 3.5 | 0.00 | 0.00 | 0.00 | 70 | 1018.0 |
| 20260506050814 | 59 | 261 | 0.0 | 5.2 | 0.00 | 0.00 | 0.00 | 70 | 1018.0 |
| 20260506050533 | 59 | 295 | 1.7 | 5.2 | 0.00 | 0.00 | 0.00 | 70 | 1017.9 |
| 20260506044814 | 60 | 241 | 0.9 | 3.5 | 0.00 | 0.00 | 0.00 | 70 | 1017.7 |
| 20260506044313 | 60 | 203 | 0.9 | 3.5 | 0.00 | 0.00 | 0.00 | 70 | 1017.7 |
| 20260506043814 | 60 | 254 | 0.9 | 2.6 | 0.00 | 0.00 | 0.00 | 70 | 1017.6 |
| 20260506043313 | 60 | 247 | 0.0 | 1.7 | 0.00 | 0.00 | 0.00 | 70 | 1017.5 |
| 20260506042812 | 60 | 307 | 0.9 | 2.6 | 0.00 | 0.00 | 0.00 | 69 | 1017.5 |
| 20260506042313 | 60 | 4 | 0.9 | 2.6 | 0.00 | 0.00 | 0.00 | 69 | 1017.4 |
| 20260506042034 | 60 | 278 | 0.9 | 2.6 | 0.00 | 0.00 | 0.00 | 68 | 1017.5 |
| 20260506041312 | 60 | 281 | 0.0 | 1.7 | 0.00 | 0.00 | 0.00 | 67 | 1017.4 |
| 20260506041255 | 60 | 282 | 0.0 | 1.7 | 0.00 | 0.00 | 0.00 | 67 | 1017.3 |